Weather in Apuka

Russia / Kamchatka Krai     60°26′33″N   169°36′20″E
temp.,
°C
wind,
m/s
gust,
m/s
humid.,
%
clouds,
%
prec.,
mm/h
press.,
hPa
HPBL,
m
29 july, thu
thu2900:00+11nnw58715 0.0 100099
03:00+10nw46765 0.0 100079
06:00+10nnw467498 0.0 1002111
09:00+13nw57585 0.0 1002413
12:00+15nw795266 0.0 1003907
15:00+15nw575497 0.0 1003838
18:00+14wnw466294 0.0 1004679
21:00+12nw2269100 0.0 100512
30 july, fri
fri3000:00+11n1166100 0.0 100610
03:00+11n336484 0.0 100636
06:00+10nnw3463100 0.0 100672
09:00+12nw3456100 0.0 1006225
12:00+12sw3358100 0.0 1006398
15:00+10sw32745 0.0 1006363
18:00+11sw33755 0.0 1006292
21:00+9nnw118287 0.0 100555
31 july, sat
sat3100:00+9ene1178100 0.0 100547
03:00+10se1278100 0.3 100595
06:00+9nnw2391100 2.2 1004180
09:00+9nw1288100 0.6 1004160
12:00+11nnw2477100 0.7 1003275
15:00+13nw1360100 0.0 1002724
18:00+10sse888796 0.0 1002319
21:00+10sse797844 0.0 1003413
1 august, sun
sun100:00+9se677943 0.0 1004401
03:00+9s568084 0.0 1004486
06:00+9wsw2382100 0.1 1004276
09:00+9e018196 0.2 1004309
12:00+10s217596 0.3 1004422
15:00+10ssw43695 0.0 1003437
18:00+11sw44695 0.0 1003369
21:00+9s227966 0.0 100424
2 august, mon
mon200:00+9ese2283100 0.0 100561
03:00+9ene2282100 0.0 100563
06:00+9ne227493 0.0 100688
09:00+10wsw1168100 0.0 1007342
12:00+10w3276100 0.0 1008352
15:00+9ssw3385100 0.1 1008252
18:00+8s1292100 1.4 1009156
21:00+9wnw1290100 0.3 1010171